Location: Izdebno
(52.6670°N, 16.2170°E)
Time: 03:24:57
(UTC+02:00)

Transit 4A - Pass Details

Date: 28 February 2024
Orbit: 871 x 972 km, 66.8° (Epoch: 22 April)

Event Time Altitude Azimuth Distance (km) Brightness Sun altitude
Rises 10:46:22 0° 312° (NW) 3,493 10.4 26.8°
Reaches altitude 10° 10:49:51 10° 291° (WNW) 2,537 9.9 27.0°
Maximum altitude 10:53:10 16° 256° (WSW) 2,141 9.9 27.2°
Drops below altitude 10° 10:56:29 10° 221° (SW) 2,516 10.7 27.4°
Sets 10:59:57 0° 200° (SSW) 3,449 11.6 27.6°
